Regional Weather Roundup
Issued by NWS

Home | Current Version | Previous Version | Graphics & Text | Print | Product List | Glossary Off
Versions: 1 2 3 4 5 6 7 8 9 10 11 12 13 14 15 16 17 18 19 20 21 22 23 24 25 26 27 28 29 30 31 32 33 34 35 36 37 38 39 40 41 42 43 44 45 46 47 48 49 50

000
ASUS43 KMKX 291759
RWRWI

WISCONSIN REGIONAL WEATHER ROUNDUP
NATIONAL WEATHER SERVICE MILWAUKEE/SULLIVAN WI
100 PM CDT SUN MAR 29 2015

NOTE: "FAIR" INDICATES FEW OR NO CLOUDS BELOW 12,000 FEET WITH NO
SIGNIFICANT WEATHER AND/OR OBSTRUCTIONS TO VISIBILITY.

WIZ001-002-006>008-014>016-023>028-291900-
NORTHWEST WISCONSIN

CITY           SKY/WX    TMP DP  RH WIND       PRES   REMARKS
SUPERIOR ARPT  MIX PCPN  34  33  97 W8        29.53R WCI  27
ASHLAND        LGT SNOW  33  32  96 SW8       29.50S VSB 3/4 WCI  26
6HR MIN TEMP:  33; 6HR MAX TEMP:  36; 6HR PCP:  0.07;

HAYWARD        LGT SNOW  34  32  92 SW6       29.52R FOG     WCI  29
6HR MIN TEMP:  32; 6HR MAX TEMP:  34; 6HR PCP:  0.13;

SIREN          RAIN      36  34  93 NW15G21   29.57R WCI  27
CUMBERLAND     LGT RAIN  36  36 100 W13       29.53R WCI  27
RICE LAKE      LGT RAIN  37  36  95 SW8       29.54F WCI  31
CHETEK         DRIZZLE   37  36  98 SW7       29.54S WCI  31
LADYSMITH      RAIN      34  33  95 S8        29.55S VSB 1   WCI  27
EAU CLAIRE     LGT RAIN  40  37  89 SW10      29.55F FOG     WCI  33
6HR MIN TEMP:  32; 6HR MAX TEMP:  40; 6HR PCP:  0.03;

MENOMONIE      LGT RAIN  41  39  91 SW13      29.56S
NEW RICHMOND   LGT RAIN  42  41  96 W17G28    29.59R
OSCEOLA        RAIN      41  40  97 NW23G36   29.64R
$$

WIZ003>005-009-010-017-018-291900-
NORTH CENTRAL WISCONSIN

CITY           SKY/WX    TMP DP  RH WIND       PRES   REMARKS
MANITOWISH WTR MIX PCPN  32  32 100 SW12      29.50F WCI  23
ARBOR VITAE    LGT SNOW  33  31  93 SW9G16    29.50F WCI  25
WOODRUFF       LGT SNOW  33  31  93 SW9G16    29.50F WCI  25
RHINELANDER    MIX PCPN  32  29  88 SW17G23   29.52F FOG     WCI  21
6HR MIN TEMP:  29; 6HR MAX TEMP:  32; 6HR PCP:  0.06;

EAGLE RIVER    MIX PCPN  31  28  88 SW8G17    29.51F WCI  24
LAND O LAKES   LGT SNOW  31  30  93 SW8G18    29.50F WCI  24
PHILLIPS       LGT SNOW  32  31  96 SW10      29.51F WCI  24
TOMAHAWK       DRIZZLE   32  30  94 CALM      29.54F
MEDFORD        CLOUDY    32  31  97 SW12      29.54F FOG     WCI  23
MERRILL        MIX PCPN  32  32 100 SW12G18   29.55F WCI  23
$$

WIZ029-030-035-036-043>047-291900-
CENTRAL WISCONSIN

CITY           SKY/WX    TMP DP  RH WIND       PRES   REMARKS
WAUSAU         LGT SNOW  33  31  92 S17       29.55F FOG     WCI  22
6HR MIN TEMP:  30; 6HR MAX TEMP:  33; 6HR PCP:  0.08;

MOSINEE        DRIZZLE   32  32 100 S13       29.59F WCI  22
MARSHFIELD     CLOUDY    35  32  88 SW18      29.57F FOG     WCI  24
6HR MIN TEMP:  31; 6HR MAX TEMP:  35; 6HR PCP:  0.03;

STEVENS POINT  CLOUDY    31  30  94 S17G24    29.61F FOG     WCI  20
WAUPACA        CLOUDY    35  31  86 S15G21    29.67F WCI  25
WAUTOMA        NOT AVBL
WISC RAPIDS    CLOUDY    34  31  88 SW17G25   29.64F WCI  23
6HR MIN TEMP:  31; 6HR MAX TEMP:  34; 6HR PCP:  0.04;

CAMP DOUGLAS   NOT AVBL
$$

WIZ011>013-019>022-031-037>040-048>050-291900-
NORTHEAST WISCONSIN

CITY           SKY/WX    TMP DP  RH WIND       PRES   REMARKS
ANTIGO         CLOUDY    31  30  97 S14       29.56F FOG     WCI  21
SHAWANO        CLOUDY    34  31  90 SW10G16   29.65F WCI  26
OCONTO         CLOUDY    32  32  99 S17G24    29.66F WCI  21
STURGEON BAY   CLOUDY    32  28  86 S17G26    29.68F WCI  21
6HR MIN TEMP:  28; 6HR MAX TEMP:  36;

GREEN BAY      NOT AVBL
MANITOWOC      NOT AVBL
APPLETON       CLOUDY    32  28  86 SW16G22   29.69F WCI  21
CLINTONVILLE   CLOUDY    32  32 100 SW15      29.65F WCI  22
OSHKOSH        CLOUDY    33  29  85 S23G36    29.69F WCI  21
6HR MIN TEMP:  31; 6HR MAX TEMP:  34; 6HR PCP:  0.05;

$$

WIZ032>034-041-042-053>061-291900-
SOUTHWEST WISCONSIN

CITY           SKY/WX    TMP DP  RH WIND       PRES   REMARKS
LA CROSSE      CLOUDY    44  37  76 S15       29.65F
6HR MIN TEMP:  34; 6HR MAX TEMP:  44; 6HR PCP:  0.03;

SPARTA         CLOUDY    38  33  81 SW12G17   29.66F WCI  31
VIROQUA        CLOUDY    36  36 100 SW18G25   29.68F WCI  26
BOSCOBEL       CLOUDY    40  33  76 SW15      29.75F WCI  32
6HR MIN TEMP:  34; 6HR MAX TEMP:  40; 6HR PCP:  0.05;

PRAIRIE DU CHI CLOUDY    40  33  76 S7        29.75F
PLATTEVILLE    CLOUDY    35  32  92 S12       29.79F WCI  26
$$

WIZ056-057-062-063-064-067-068-291900-
SOUTH CENTRAL WISCONSIN

CITY           SKY/WX    TMP DP  RH WIND       PRES   REMARKS
REEDSBURG      CLOUDY    34  32  93 SW18G29   29.71F WCI  23
BARABOO/DELLS  DRIZZLE   33  31  90 SW14      29.70F WCI  24
LONE ROCK      NOT AVBL
MINERAL POINT  CLOUDY    36  32  87 S15G21    29.76F WCI  26
MADISON        CLOUDY    34  29  82 S15G25    29.77F WCI  24
6HR MIN TEMP:  31; 6HR MAX TEMP:  34; 6HR PCP:  0.07;

MIDDLETON      CLOUDY    35  31  85 SW10G17   29.76F WCI  27
WATERTOWN      CLOUDY    32  32  99 S16G22    29.79F WCI  21
MONROE         CLOUDY    32  32 100 S24G31    29.80F WCI  19
JANESVILLE     NOT AVBL
$$

WIZ051-052-058>065-066-070>072-291900-
SOUTHEAST WISCONSIN

CITY           SKY/WX    TMP DP  RH WIND       PRES   REMARKS
MILWAUKEE      CLOUDY    35  28  75 SW18G37   29.81F HAZE    WCI  24
6HR MIN TEMP:  30; 6HR MAX TEMP:  38; 6HR PCP:  0.02;

WAUKESHA       DRIZZLE   30  28  93 S15G35    29.81S WCI  19
MILWAUKEE/TIMM NOT AVBL
RACINE         CLOUDY    35  28  75 S18G36    29.84F WCI  24
6HR MIN TEMP:  30; 6HR MAX TEMP:  39; 6HR PCP:  0.02;

BURLINGTON     CLOUDY    32  28  86 S23       29.84F FOG     WCI  19
KENOSHA        CLOUDY    35  29  78 S25G41    29.83F WCI  23
6HR MIN TEMP:  31; 6HR MAX TEMP:  38; 6HR PCP:  0.02;

FOND DU LAC    CLOUDY    33  29  85 S28G41    29.72F WCI  20
6HR MIN TEMP:  30; 6HR MAX TEMP:  35; 6HR PCP:  0.05;

SHEBOYGAN      LGT SNOW  33  30  88 S21G30    29.76F FOG     WCI  21
6HR MIN TEMP:  30; 6HR MAX TEMP:  36; 6HR PCP:  0.04;

WEST BEND      DRIZZLE   32  30  93 S15       29.77S WCI  22
JUNEAU         CLOUDY    32  30  92 S17G24    29.79F WCI  21
$$

LSZ147-162-291900-
LAKE SUPERIOR

STATION/POSITION TIME  TEMP    WIND        PRES    WAVE
                       AIR SEA DIR/SP/G            HT/PER
                 (UTC) (F)     (DEG/KT/KT) (MB)    (FT/S)
DEVILS ISLAND    1700   33     240/ 15/ 17  998.8F
PORT WING        1740   35     220/  6/ 14  999.7R
SAXON HARBOR     1700   36     210/  9/ 21  998.6S
$$

LMZ867-665-643>646-291900-
LAKE MICHIGAN

STATION/POSITION TIME  TEMP    WIND        PRES    WAVE
                       AIR SEA DIR/SP/G            HT/PER
                 (UTC) (F)     (DEG/KT/KT) (MB)    (FT/S)
NORTHPORT PIER   1620   34     160/ 16     1006.4F
SISTER BAY       1732   32     180/ 14/ 17   N/A
KEWAUNEE LAKESHO 1700   34     190/ 33/ 38 1006.0F
SHEBOYGAN LAKESH 1700   35     170/ 29/ 33 1008.5F
PORT WASHINGTON  1722   36     210/ 13     1009.8F
MILWAUKEE LAKESH 1700   35     190/ 22/ 27   N/A
KENOSHA   LAKESH 1700   36     200/ 23/ 34 1011.2F
$$

TC  - TEMPERATURE IN CELSIUS
VSB - VISIBILITY IN STATUTE MILES
WCI - WIND CHILL INDEX
HX  - HEAT INDEX




USA.gov is the U.S. government's official web portal to all federal, state and local government web resources and services.